Location: Marstown
(39.5056°N, 77.0820°W)
Time: 04:20:06
(UTC-04:00)

ACS3 Solar Sail - Pass Details

Date: 10 May 2026
Orbit: 877 x 953 km, 97.2° (Epoch: 8 June)

Event Time Altitude Azimuth Distance (km) Brightness Sun altitude
Rises 01:45:24 0° 14° (NNE) 3,501 5.8 -32.1°
Reaches altitude 10° 01:47:50 10° 17° (NNE) 2,550 4.9 -32.0°
Enters shadow 01:52:34 56° 54° (NE) 1,035 2.0 -31.8°
